Location: Tucson
(32.2217°N, 110.9265°W)
Time: 03:28:14
(UTC-07:00)

ISS - Visible Passes

Search period start: 28 September 2021 00:00
Search period end: 08 October 2021 00:00
Orbit: 417 x 422 km, 51.6° (Epoch: 28 September)

Date Brightness Start Highest point End Pass type
(mag) Time Alt. Az. Time Alt. Az. Time Alt. Az.
02 Oct -1.1 19:56:24 10° NNW 19:57:08 14° N 19:57:08 14° N visible
03 Oct -1.7 19:09:14 10° N 19:11:16 15° NNE 19:11:27 15° NE visible
04 Oct -1.8 19:57:05 10° NW 19:58:45 27° NW 19:58:45 27° NW visible
05 Oct -3.2 19:09:19 10° NNW 19:12:31 40° NE 19:13:09 35° ENE visible
06 Oct -1.6 19:58:18 10° WNW 20:00:37 24° WSW 20:00:37 24° WSW visible
07 Oct -3.1 19:09:54 10° NW 19:13:10 52° SW 19:15:13 20° SSE visible
